GFSSW_850_thetae_057.txt.gz
Theta_e
300 300 300 300 300 300 300 300 300 300 300 300 300 301 301 302 302 303 303 304 306 307 309 310 311 316 320 324 323 323 323 322 321 322 321 324 326 327 326 326 326 328 329 327 330
300 300 300 300 300 300 300 300 300 300 300 300 300 301 301 301 302 302 308 306 307 305 307 307 315 314 321 325 325 326 325 323 321 321 323 323 326 326 326 326 327 327 328 328 329
300 300 300 300 300 300 300 300 300 300 301 302 302 301 301 301 301 306 310 308 306 304 306 307 308 320 320 321 325 325 327 324 322 321 322 323 323 324 325 326 325 326 327 327 327
300 300 300 300 300 300 300 300 301 302 302 303 304 303 302 301 303 308 310 309 306 304 305 310 309 313 317 321 321 324 325 325 324 323 324 324 324 326 326 325 324 326 327 328 327
300 300 300 300 301 300 300 301 303 304 303 303 303 304 303 302 303 302 305 304 304 304 305 310 309 313 316 318 319 323 323 324 326 325 325 326 327 327 328 327 328 329 328 328 327
300 300 300 301 302 301 301 303 304 304 305 304 304 303 304 306 305 307 309 308 307 307 307 305 314 311 313 315 318 320 321 322 323 327 328 328 328 328 328 328 327 327 327 327 326
300 300 300 301 301 302 302 303 304 305 305 305 305 304 305 305 307 308 308 308 308 308 307 308 305 311 312 312 314 316 319 319 321 324 325 326 325 327 326 326 326 326 326 326 326
300 301 301 301 302 302 302 303 304 304 304 305 305 305 307 307 307 307 307 307 308 308 308 308 304 305 312 314 313 315 316 318 320 318 319 321 326 327 325 325 325 326 326 325 325
301 301 301 301 302 302 303 303 304 305 305 306 306 306 307 307 307 307 307 307 307 307 307 307 304 305 311 314 314 315 318 319 319 320 320 320 324 325 324 323 325 325 325 325 325
300 300 301 300 302 302 303 303 305 305 305 306 307 308 306 307 307 307 308 307 307 306 307 307 307 309 310 314 316 316 316 318 320 320 319 320 322 323 323 322 323 324 324 324 324
300 300 301 301 303 304 305 303 304 305 305 305 306 306 307 307 307 308 307 306 306 307 309 308 307 309 310 313 314 315 316 317 318 319 320 321 323 323 322 322 322 323 323 323 323
299 301 301 301 303 306 306 304 306 306 307 305 305 305 306 306 306 308 307 307 307 308 307 307 308 308 309 310 312 314 315 315 316 316 318 320 322 322 321 321 321 322 322 322 322
300 302 302 301 301 305 307 306 307 307 306 306 305 305 307 306 307 308 308 307 307 307 308 308 308 308 308 309 311 312 314 315 316 316 317 317 319 319 319 319 318 318 318 318 318
300 305 306 301 303 305 307 307 307 307 307 306 307 307 306 306 307 308 309 309 306 306 307 307 308 306 307 309 310 312 312 313 314 315 317 316 319 320 320 320 319 318 318 318 318
303 306 304 302 304 307 307 307 307 305 306 306 307 306 307 307 307 308 308 310 310 310 306 308 306 306 307 309 310 311 311 313 314 315 316 316 316 318 318 319 319 320 318 317 317
306 304 305 308 308 308 308 308 306 307 306 307 306 307 307 307 307 307 308 310 311 311 311 309 307 306 306 308 309 310 311 311 312 313 315 315 316 317 318 318 318 318 317 317 317
307 308 308 308 309 308 308 307 307 308 307 308 307 307 307 308 307 307 308 312 312 313 313 310 309 309 307 307 307 308 310 311 312 312 313 314 315 316 318 317 317 317 317 317 317
307 309 308 308 308 308 308 305 307 307 307 307 307 307 307 307 307 307 307 310 311 311 314 311 312 309 309 308 307 308 309 311 311 312 312 312 314 315 316 316 316 316 316 317 318
306 309 308 308 308 308 306 309 307 307 307 308 308 308 307 306 307 307 307 309 310 310 312 313 313 310 311 310 308 308 308 310 310 311 312 313 313 314 315 316 317 316 316 317 319
305 309 309 308 307 307 307 308 308 307 307 307 308 308 308 307 307 307 307 309 309 309 310 311 312 310 310 310 309 309 310 308 309 310 311 313 314 315 316 315 316 316 316 317 322
305 309 307 307 306 306 309 307 307 307 307 307 308 308 308 308 307 307 308 308 307 309 309 310 310 310 310 310 310 310 310 310 310 310 311 312 314 316 316 316 316 316 315 316 319
302 310 307 305 308 302 307 305 305 307 307 307 308 308 308 307 308 307 307 308 307 307 308 309 311 311 310 309 309 309 309 309 312 311 311 312 312 314 315 314 315 316 315 316 318
302 304 306 303 307 306 305 305 305 307 307 307 308 307 306 307 308 307 307 306 306 307 308 309 309 309 308 312 310 310 310 310 310 311 313 312 312 314 314 315 315 315 315 315 317
300 306 302 302 302 304 304 305 306 306 307 306 306 306 307 307 306 307 306 306 306 307 308 309 310 310 310 309 310 311 310 310 311 313 312 313 313 314 314 315 315 315 316 316 317
301 303 302 305 303 302 303 303 305 306 307 306 307 306 308 308 306 306 307 307 306 307 307 309 310 309 309 309 309 310 310 311 311 311 312 311 312 313 314 315 315 315 316 316 318
301 302 301 301 300 303 303 305 305 307 305 306 307 307 307 307 307 307 306 307 308 307 308 309 310 309 309 308 308 309 309 310 311 311 311 311 311 311 312 311 312 314 317 318 320
303 301 300 302 302 303 303 304 304 303 305 305 306 307 307 307 305 306 306 306 306 307 309 309 310 309 308 307 310 311 311 311 311 311 311 312 311 311 311 312 314 318 319 319 321

GFSSW_850_thetae_060.txt.gz
Theta_e
300 300 300 300 300 300 300 300 300 300 300 301 301 301 301 302 302 305 306 306 305 305 308 311 312 322 324 323 323 324 326 326 324 321 321 322 324 323 328 328 330 330 331 330 331
300 300 300 300 300 300 300 300 300 300 301 301 302 302 301 302 302 307 308 305 304 305 307 311 312 317 322 325 324 326 328 327 325 323 322 322 322 325 328 328 331 330 330 330 332
300 300 300 300 300 300 300 300 301 301 302 302 302 302 302 302 307 312 308 308 308 307 309 312 310 318 319 322 325 326 329 327 326 324 322 322 323 323 326 329 331 331 331 331 330
300 300 300 300 302 300 300 301 302 303 303 302 302 302 303 303 309 313 310 307 306 307 311 313 313 314 321 323 323 327 327 327 327 326 324 324 323 324 323 324 326 327 328 328 329
300 300 300 301 302 301 301 302 303 303 304 304 303 304 305 309 306 303 305 307 308 308 308 310 314 313 318 321 323 325 326 326 325 325 325 325 325 326 326 325 325 326 328 329 329
300 300 300 301 301 302 302 303 304 304 304 304 304 305 309 310 307 308 308 309 310 309 308 308 312 314 314 317 320 322 323 324 325 325 326 326 326 327 328 328 328 329 330 329 329
300 301 301 301 302 302 302 303 303 304 304 305 305 306 310 308 307 308 310 310 309 309 309 309 308 309 315 316 315 318 321 322 324 325 325 327 328 330 328 329 330 329 329 329 329
300 300 301 301 301 302 302 303 303 303 305 305 306 307 311 307 308 309 309 309 309 309 309 309 309 308 309 313 316 317 318 321 322 324 324 325 329 329 327 327 329 329 329 329 329
299 300 301 301 301 302 303 304 303 304 305 306 309 310 310 308 308 308 309 309 309 309 309 308 308 308 308 312 315 318 319 320 321 323 324 324 327 328 326 328 328 328 328 328 329
299 300 301 301 301 304 306 306 304 305 305 306 307 312 308 308 307 307 309 309 309 309 309 310 310 311 310 311 314 316 319 319 321 322 323 323 324 325 326 326 327 327 327 328 328
298 300 301 301 301 305 307 309 311 310 308 308 308 308 307 307 308 308 309 309 309 309 311 310 312 312 311 312 311 314 317 319 320 320 322 324 324 325 324 324 326 326 327 327 327
298 301 304 303 301 304 308 309 308 307 309 308 307 308 307 307 308 309 309 310 310 311 311 311 312 311 311 311 310 312 315 317 319 318 321 322 324 324 325 325 325 326 326 326 326
298 304 306 305 301 304 309 308 308 308 310 308 308 307 307 307 308 308 309 310 311 311 311 310 311 311 310 310 310 312 313 315 317 318 320 321 323 324 324 324 324 324 324 323 324
298 306 303 304 305 305 309 308 308 307 311 308 309 308 307 307 309 308 309 309 311 311 311 310 310 310 310 310 310 311 311 312 314 318 320 320 323 323 323 324 324 323 323 323 323
300 305 304 306 307 309 308 308 308 308 312 308 309 307 307 308 308 309 308 310 312 312 313 313 311 310 310 309 310 310 311 312 315 316 318 319 322 322 322 323 324 324 323 322 321
300 308 308 308 308 308 308 308 307 312 311 309 309 309 309 308 308 308 308 310 311 313 313 313 312 312 310 310 309 311 311 312 314 316 319 318 319 320 321 322 322 323 321 320 320
300 308 308 308 310 308 308 308 312 312 309 310 309 309 309 308 309 308 308 309 312 314 312 313 313 312 311 309 310 310 311 312 314 316 317 318 319 320 321 320 321 321 320 320 320
301 308 308 308 308 308 309 310 313 309 309 309 309 310 308 309 309 309 309 308 311 312 314 314 313 312 312 311 311 310 310 313 314 315 315 316 317 319 319 320 320 319 319 320 323
303 309 310 308 307 307 309 314 311 310 309 309 310 309 309 309 309 309 309 309 310 310 311 313 313 312 311 311 311 311 310 311 311 312 314 316 316 317 319 319 320 319 319 320 323
305 311 310 308 306 309 311 309 310 308 308 309 309 309 310 309 309 309 309 309 309 309 309 311 313 311 311 311 311 312 310 311 310 314 313 315 317 317 318 318 319 320 320 320 321
307 311 308 307 306 308 312 310 309 308 308 309 309 309 310 310 309 309 309 308 309 309 308 309 311 312 311 312 312 313 311 311 312 311 311 314 316 318 319 319 320 320 319 319 320
306 312 308 302 309 308 308 307 306 309 308 308 309 309 309 309 309 309 309 309 308 308 309 309 311 312 311 311 310 311 313 313 315 315 313 314 318 319 320 320 320 319 318 319 319
305 305 305 305 309 307 306 307 307 308 308 308 309 308 308 308 309 308 308 307 307 308 310 311 310 312 310 312 312 311 310 311 313 314 317 314 316 318 318 318 317 318 318 318 318
305 310 309 306 305 306 306 308 308 307 308 308 308 308 308 309 308 310 308 308 307 307 306 309 312 311 312 311 311 311 311 312 312 314 313 314 315 317 318 317 317 317 317 316 317
304 308 306 311 309 306 306 306 307 308 308 307 308 308 308 309 310 309 309 309 309 308 308 309 312 311 310 310 310 310 310 311 312 312 313 313 314 315 316 316 316 315 314 314 317
305 305 305 305 305 306 306 307 307 308 306 307 308 307 307 308 308 309 309 310 310 309 310 311 311 311 311 310 310 310 310 310 310 311 312 312 313 313 313 312 313 313 313 315 318
303 302 302 305 306 306 307 306 305 305 305 306 307 308 308 309 308 308 308 308 309 309 309 311 311 312 312 310 309 311 311 311 312 312 312 313 313 313 313 314 314 313 313 315 318

GFSSW_850_thetae_063.txt.gz
Theta_e
300 300 300 300 300 300 300 300 301 301 301 301 302 302 302 302 302 309 312 312 312 310 310 312 315 321 323 326 326 326 329 329 327 326 324 323 324 324 326 328 329 331 334 335 338
300 300 300 300 301 301 300 300 301 301 302 302 302 302 302 302 303 311 312 309 305 305 311 313 316 317 323 326 327 328 330 330 328 327 326 324 324 324 326 328 330 332 333 333 337
300 300 300 300 302 301 301 301 302 303 303 302 302 303 303 303 314 317 310 308 309 309 311 312 315 316 321 324 327 328 330 330 329 328 327 326 325 324 325 328 330 332 333 333 334
300 300 300 300 302 302 301 302 303 303 304 304 303 304 304 309 314 317 308 303 304 306 310 314 315 316 317 323 323 328 328 328 329 328 328 327 325 326 325 325 328 331 333 333 332
300 300 300 301 301 302 302 302 303 304 304 304 305 305 309 315 310 307 308 310 312 310 310 312 315 317 319 319 323 325 326 326 327 328 328 328 327 328 327 326 325 325 329 331 331
300 300 301 301 301 302 302 303 303 303 303 304 305 306 315 316 309 310 311 311 312 311 311 311 311 314 317 318 321 322 324 325 326 327 327 328 328 327 328 327 327 326 326 328 330
299 300 300 301 301 302 302 303 303 303 303 305 306 307 314 311 310 311 312 311 312 311 311 312 311 311 314 318 317 318 320 322 324 326 327 327 328 329 328 327 328 329 328 329 331
299 299 300 301 301 302 303 304 306 303 305 306 307 313 315 309 310 311 310 311 311 311 311 311 311 312 311 312 314 317 320 321 322 324 325 326 328 328 327 329 329 329 330 330 331
298 299 300 301 301 302 305 306 306 305 305 306 314 314 314 310 310 309 309 310 310 311 311 311 311 312 313 312 312 314 317 321 321 322 323 324 328 327 326 327 328 329 329 330 329
298 299 301 302 301 301 304 308 310 308 309 311 312 315 312 309 309 308 309 310 310 310 310 311 312 315 314 313 313 313 315 317 319 321 322 323 326 326 326 327 327 329 329 329 329
298 299 303 305 302 301 304 313 314 315 312 311 311 309 309 309 308 309 310 310 311 311 314 313 313 315 315 315 315 314 314 314 317 320 321 322 324 324 326 325 326 328 328 329 329
298 301 306 305 302 302 311 312 310 311 312 311 310 309 309 309 309 309 310 311 311 313 313 314 314 313 314 314 313 314 314 315 315 316 320 322 322 323 326 326 325 326 327 328 329
298 306 304 305 301 309 311 311 310 311 313 310 309 310 309 309 309 309 309 310 312 312 313 313 313 313 313 313 313 313 314 314 314 315 317 320 322 323 324 325 325 325 326 326 327
300 306 304 305 311 309 313 310 310 310 316 312 311 310 309 309 311 309 309 310 311 312 312 313 313 313 311 312 313 313 313 312 313 314 317 319 322 323 323 324 325 325 325 326 327
303 308 308 307 311 313 311 311 310 311 320 311 311 309 309 310 309 311 310 309 312 312 312 313 313 314 315 312 312 312 312 312 312 313 315 316 319 321 323 324 325 326 325 325 326
306 307 308 311 313 310 311 311 311 317 317 311 311 311 311 311 310 310 309 309 309 311 312 312 313 314 314 314 312 312 311 312 312 313 316 316 318 320 322 324 324 325 325 325 325
307 307 308 310 312 310 311 312 317 316 312 313 312 311 312 312 310 310 310 311 310 312 312 312 313 314 313 314 314 312 312 312 313 315 314 315 319 319 321 322 323 323 323 323 323
306 308 310 311 310 311 312 315 316 313 313 312 311 312 312 311 311 311 311 311 310 311 312 313 314 313 313 313 314 313 313 312 315 315 315 316 317 319 320 321 322 322 322 323 322
305 311 313 312 311 310 312 317 315 313 311 311 312 312 312 311 311 311 311 311 310 311 311 312 313 312 312 314 313 314 314 313 313 313 316 317 317 319 321 321 322 322 321 322 323
306 312 313 310 310 310 314 313 312 311 311 311 312 311 312 312 312 312 311 311 310 310 310 311 311 311 313 314 312 313 314 316 314 314 312 316 317 318 320 320 321 322 322 322 323
310 314 312 307 309 312 314 312 311 311 310 311 311 312 312 311 311 311 311 311 311 310 310 310 310 311 312 314 315 314 315 314 314 315 314 316 318 319 320 320 322 323 322 322 322
311 315 311 306 313 311 311 309 307 311 310 311 310 311 312 311 311 311 311 311 310 309 309 311 313 311 311 311 312 312 314 315 319 318 315 315 316 317 321 322 321 322 321 321 322
309 310 310 309 315 314 310 309 309 311 311 310 310 311 310 310 311 311 311 310 309 309 311 311 313 315 311 312 313 314 314 314 314 316 317 319 319 319 323 323 322 322 321 320 319
308 313 311 311 310 311 311 311 311 309 310 310 310 310 310 311 310 312 312 311 310 310 309 310 312 312 315 313 312 313 313 312 314 316 315 316 315 316 317 321 320 319 319 320 317
309 311 309 312 312 312 311 311 310 311 310 310 310 310 310 311 312 311 312 311 311 311 311 312 314 312 312 312 312 311 310 311 311 312 312 314 313 315 316 315 319 317 316 317 317
307 307 306 307 309 311 309 311 310 310 310 310 311 310 309 310 310 311 311 312 313 313 312 311 314 313 313 312 311 311 311 311 311 311 312 312 312 313 314 314 315 315 315 316 317
305 305 304 308 310 310 312 311 310 309 309 309 310 310 310 310 310 310 310 311 312 313 313 311 312 314 313 312 313 312 312 315 315 313 313 313 313 314 314 315 315 315 316 316 316

GFSSW_850_thetae_069.txt.gz
Theta_e
300 300 300 300 301 301 301 301 301 301 302 303 302 302 302 303 303 303 305 313 315 313 314 313 311 314 317 320 322 322 323 327 326 326 325 326 324 326 326 324 324 325 329 337 339
300 300 300 300 301 301 302 302 301 302 303 304 304 303 304 304 304 304 310 313 314 313 311 311 314 314 315 318 322 320 322 325 327 327 326 326 327 327 326 324 324 325 332 333 335
300 300 300 301 301 301 302 302 302 302 303 303 304 304 304 305 316 317 315 313 312 307 307 307 313 314 315 316 319 323 323 325 327 328 328 327 327 328 326 325 326 325 326 331 332
299 300 300 300 301 301 301 302 302 303 303 303 303 304 305 309 319 317 309 309 308 310 312 312 312 313 314 314 317 317 323 325 326 327 327 326 327 327 328 326 326 326 326 326 328
298 299 299 300 300 301 301 302 303 303 303 303 303 304 308 320 318 310 310 312 314 314 313 313 313 312 312 315 316 316 317 318 321 325 327 327 327 327 327 328 328 328 327 328 327
298 298 299 299 300 301 301 301 303 305 306 304 304 305 311 319 312 312 312 313 313 313 313 313 313 313 313 312 311 314 315 317 319 318 320 325 327 327 328 328 328 329 328 328 328
305 301 298 299 300 301 301 301 303 306 305 304 305 306 311 314 312 311 312 312 312 312 313 313 313 313 313 311 314 313 311 313 316 318 318 320 320 324 327 327 327 328 329 328 328
307 306 299 300 301 302 301 301 303 309 306 305 306 307 317 312 311 311 310 310 311 312 312 312 312 312 312 312 312 311 311 311 314 316 318 318 318 319 322 326 327 327 328 328 328
306 307 300 304 305 304 302 301 303 311 305 305 309 315 320 312 312 310 309 310 311 311 311 311 312 312 312 310 309 311 310 310 312 312 313 315 318 319 320 321 326 327 327 328 327
304 307 303 305 305 304 302 308 311 314 310 316 312 316 315 313 311 309 310 311 311 312 313 313 312 310 309 310 310 311 310 311 312 312 312 311 313 315 318 320 321 324 327 327 327
303 306 305 304 305 307 313 315 314 318 315 319 318 316 313 311 310 310 311 311 312 313 312 313 311 311 311 311 313 313 313 313 314 315 313 313 313 314 315 315 315 320 322 327 327
304 306 306 306 304 311 314 313 312 312 312 312 313 312 311 310 310 312 311 311 311 310 310 310 310 312 313 314 313 313 312 312 313 314 313 313 313 313 314 314 315 316 319 323 327
304 307 307 310 311 312 313 313 312 312 312 313 313 311 311 311 311 311 311 310 311 310 310 310 312 313 313 312 313 312 312 312 312 313 313 313 312 313 313 314 315 316 317 320 325
304 308 305 308 312 313 314 313 313 312 312 314 311 311 311 310 311 312 311 311 311 310 310 310 311 313 312 313 313 313 314 315 314 312 311 312 312 311 312 313 313 315 317 318 320
303 308 305 312 313 314 312 312 313 313 323 314 312 311 311 310 312 312 311 311 310 310 310 309 309 311 312 312 315 315 314 314 314 312 309 310 309 310 311 312 313 313 315 316 320
304 308 306 313 313 312 311 311 314 318 322 312 312 312 311 312 312 312 311 311 311 310 310 309 311 313 314 314 314 313 313 313 311 309 310 310 310 311 310 311 312 313 314 315 317
307 304 305 311 312 312 311 314 316 321 315 314 313 312 311 312 312 312 311 310 310 311 310 310 310 314 314 313 312 311 312 314 314 312 312 311 311 311 312 313 314 314 315 315 316
310 311 308 307 312 311 312 314 320 319 314 313 312 312 312 313 312 312 311 311 312 310 309 310 310 310 314 313 311 312 313 316 316 312 311 313 313 312 313 313 314 314 315 316 317
307 315 316 316 312 308 312 315 319 313 312 312 313 313 313 313 313 312 311 311 312 310 311 310 312 311 311 311 310 310 310 310 311 311 312 312 312 313 315 317 317 316 316 316 315
314 316 315 314 310 313 313 317 314 312 312 312 313 313 312 312 312 311 311 313 312 311 310 311 310 310 310 311 311 311 310 311 312 314 315 312 312 313 317 317 315 315 314 314 316
314 316 316 312 311 314 315 313 311 310 310 312 313 312 312 312 311 311 312 312 313 311 311 310 311 312 310 310 311 312 311 314 315 316 317 315 313 318 316 315 315 314 314 315 317
313 315 313 312 313 317 314 313 313 311 311 313 312 312 312 312 312 312 312 313 312 312 312 311 310 310 311 310 312 314 314 313 316 316 315 315 315 316 314 313 314 313 313 316 319
312 314 313 313 313 313 314 313 313 312 312 311 312 312 311 310 312 313 313 312 313 313 313 312 310 312 310 310 311 312 312 311 311 311 314 316 314 313 314 313 314 314 315 315 318
313 313 314 312 311 312 311 312 313 312 312 312 312 312 312 312 311 312 312 312 312 312 313 312 311 312 312 312 311 312 312 311 311 313 313 314 313 315 315 314 314 312 313 314 314
309 311 309 310 310 311 312 312 313 314 312 311 311 311 310 312 311 310 310 311 311 311 313 312 313 313 313 312 312 312 312 312 313 312 314 315 315 315 314 313 314 313 313 314 314
307 308 307 307 311 312 312 312 311 311 310 311 310 311 310 310 310 311 310 310 312 312 312 312 314 313 314 312 313 313 313 313 313 313 313 313 315 314 314 315 314 314 316 316 315
306 306 307 308 310 309 309 309 311 309 310 310 310 309 309 310 311 311 310 310 310 310 310 313 314 312 312 312 313 313 316 315 314 313 313 313 313 312 313 314 315 315 316 321 321

GFSSW_850_thetae_072.txt.gz
Theta_e
300 300 300 300 300 301 301 301 302 301 302 303 304 303 303 304 304 304 303 305 311 311 311 313 312 313 317 317 321 321 321 325 327 326 325 326 325 326 327 326 326 325 331 336 337
299 299 300 300 300 301 301 302 302 302 302 303 303 304 304 304 305 306 304 308 312 314 313 312 312 314 314 316 318 319 318 323 325 325 325 326 326 327 326 326 326 325 325 329 333
298 299 299 300 300 301 301 301 302 302 303 303 303 303 304 305 315 316 314 313 311 307 307 307 311 312 313 314 318 320 321 322 323 325 326 326 326 326 326 326 327 325 326 326 325
298 298 299 299 300 300 301 301 302 303 303 303 303 303 304 311 317 313 308 311 307 310 312 311 311 312 312 313 315 314 317 321 322 323 324 325 325 326 326 326 327 327 327 328 326
306 304 300 299 299 300 301 301 301 303 305 305 303 304 307 318 319 311 311 313 313 313 313 313 313 312 310 312 313 313 314 316 317 318 322 325 325 325 326 326 327 327 327 328 329
307 307 306 299 299 300 301 301 301 303 306 305 304 305 308 317 311 311 313 313 313 312 312 312 312 312 311 311 310 311 312 312 313 314 316 316 317 322 325 326 326 326 326 327 328
305 306 307 300 301 302 301 301 301 303 308 306 305 306 308 308 311 311 311 311 311 312 311 312 312 312 312 310 312 312 310 310 312 314 315 317 317 317 319 320 322 325 326 326 327
301 305 305 303 305 304 303 301 301 303 309 305 305 308 313 313 311 311 310 310 310 311 312 311 311 312 311 312 311 310 309 309 312 311 314 316 316 317 318 318 319 320 324 326 325
300 305 304 304 304 304 303 302 303 309 308 311 310 317 317 312 311 310 309 310 310 310 311 311 311 312 311 309 307 308 308 309 310 311 311 312 311 313 315 316 317 318 320 322 326
301 306 304 304 305 306 312 313 315 315 311 314 313 315 315 312 311 311 310 310 311 311 312 312 311 309 306 307 309 309 309 310 311 312 312 311 311 312 313 314 314 315 315 316 323
301 307 305 307 304 312 313 313 311 315 311 312 318 317 316 310 310 310 311 310 311 311 310 310 308 308 308 308 310 311 311 311 312 312 312 311 311 312 312 313 312 313 313 314 315
300 306 305 311 309 312 313 312 312 312 311 311 311 312 313 311 310 311 310 310 310 309 308 308 309 310 311 311 311 311 311 310 311 312 312 310 311 312 311 311 312 313 313 314 314
300 306 304 308 312 313 314 313 312 312 310 311 313 312 312 311 310 311 311 310 310 309 309 308 309 311 311 311 311 311 311 312 313 313 311 311 311 311 312 312 312 312 313 313 313
301 307 304 308 312 313 312 312 312 313 311 315 310 311 310 310 310 311 311 310 310 309 309 308 309 309 311 311 312 313 314 313 313 313 311 310 311 310 310 310 310 311 311 311 311
302 308 305 313 314 312 311 311 312 314 312 313 311 311 310 310 311 312 311 311 309 309 309 308 309 308 310 314 314 313 313 312 312 312 310 310 308 310 309 310 310 310 311 313 313
306 306 306 311 312 312 310 313 314 316 314 312 311 311 310 310 310 311 311 310 310 308 308 308 309 312 313 313 312 312 312 311 310 308 309 309 308 310 308 309 309 311 314 315 316
311 304 305 308 310 309 311 314 313 317 314 312 311 311 310 310 312 311 310 309 308 309 309 309 309 313 313 312 309 309 310 311 311 310 311 310 310 310 310 311 315 316 315 315 315
314 311 312 313 311 308 309 311 317 313 312 312 312 311 311 311 312 312 310 309 310 309 307 308 308 310 312 311 310 309 309 311 315 315 313 311 311 310 314 315 315 314 314 313 313
311 315 315 314 311 312 313 312 315 312 311 312 312 312 311 312 311 310 309 311 311 309 310 309 311 309 310 309 309 309 309 309 312 310 310 309 310 310 314 315 314 314 313 312 312
315 316 315 313 311 314 310 315 310 310 310 312 312 312 311 310 310 309 310 312 312 310 308 309 309 309 310 309 309 310 309 309 308 313 315 312 312 311 316 315 314 313 312 312 313
314 316 314 311 312 314 310 311 311 312 312 312 312 311 311 310 310 310 311 311 312 312 310 309 309 310 309 309 309 310 310 311 310 310 311 315 312 314 315 314 313 313 314 314 314
313 311 312 312 312 310 310 311 312 313 311 311 311 311 311 310 310 311 311 312 312 311 311 310 309 309 310 309 309 311 311 312 308 310 312 313 312 312 313 312 313 313 313 312 314
312 313 313 313 308 307 310 310 312 312 311 310 310 311 310 310 310 311 312 312 312 312 312 311 308 311 308 308 308 311 310 310 310 309 313 313 311 313 312 313 314 313 313 313 314
310 307 311 311 310 309 308 310 312 312 312 310 310 310 310 309 309 311 311 311 310 310 312 312 308 309 309 310 308 312 312 311 310 314 312 312 312 313 314 314 313 315 314 313 315
307 306 307 304 305 305 308 310 311 311 310 309 309 310 309 309 309 309 309 309 310 310 312 309 310 311 311 312 313 313 313 313 312 311 312 313 315 314 313 313 314 313 316 314 316
305 306 306 305 307 308 308 309 309 309 308 308 309 309 308 308 308 308 309 309 309 309 309 308 310 313 313 313 312 312 312 313 313 313 312 312 311 312 311 312 312 314 316 317 317
303 304 306 305 305 304 305 306 308 307 308 307 306 306 307 307 309 310 310 309 308 309 308 308 309 312 313 312 312 314 314 315 314 313 312 313 311 310 311 312 312 312 313 313 315

GFSSW_850_thetae_075.txt.gz
Theta_e
299 299 299 300 300 300 301 301 301 302 302 302 303 303 303 304 304 304 304 304 307 306 311 313 313 314 314 317 321 320 323 326 326 326 324 325 324 325 327 327 326 325 325 328 338
299 298 299 299 299 300 300 301 301 302 302 302 302 302 303 304 305 309 306 304 309 313 313 313 313 312 312 316 319 318 317 324 324 324 325 325 325 326 326 326 326 327 327 327 327
305 303 300 299 299 299 300 301 301 301 302 303 303 303 303 305 314 314 313 313 312 309 306 308 310 313 312 313 316 318 318 321 323 324 324 324 324 324 324 325 326 326 327 327 327
306 307 307 304 299 299 300 300 301 301 303 305 305 303 304 310 317 309 311 307 306 309 312 309 309 311 310 311 314 314 316 319 321 321 322 322 323 324 324 324 325 326 325 326 326
304 305 307 307 300 299 300 300 301 301 303 305 304 304 305 316 316 311 312 313 313 313 312 313 313 311 309 310 311 312 312 314 314 314 316 318 320 322 321 320 321 323 325 326 325
299 302 306 306 302 302 302 301 301 301 302 307 304 305 307 316 312 312 312 312 312 312 312 312 312 312 310 310 310 310 310 311 312 312 313 314 315 317 318 318 318 319 321 323 325
298 301 306 304 304 304 303 303 302 301 304 307 305 305 306 310 311 311 311 311 310 312 311 311 311 311 311 310 311 311 309 309 311 313 313 315 313 315 317 318 318 318 319 319 321
302 301 306 304 304 304 303 301 301 301 308 305 304 311 311 312 312 311 310 310 310 310 312 311 311 312 311 310 309 309 306 307 309 310 312 313 315 315 315 314 315 315 316 315 316
306 302 306 306 304 307 312 312 306 306 309 314 308 316 316 312 311 310 309 310 310 310 310 310 311 311 310 307 306 305 307 309 309 309 309 311 310 310 313 313 313 314 314 314 314
308 302 306 307 307 312 313 311 315 313 311 315 312 315 315 314 310 310 310 310 310 311 311 312 310 307 305 306 308 309 308 309 310 311 310 309 310 311 312 312 313 313 313 313 314
307 302 306 309 309 312 312 312 311 312 311 312 313 315 315 311 310 309 310 310 310 310 308 309 307 307 307 307 309 310 310 309 310 310 310 309 310 310 311 311 311 312 313 313 312
303 303 306 309 311 313 313 312 312 311 311 310 311 311 314 312 312 310 311 310 309 308 308 306 308 309 309 309 309 309 310 310 310 312 312 310 311 310 309 310 311 312 312 312 311
300 305 305 308 312 312 311 311 312 313 310 311 313 311 312 312 310 310 310 310 310 309 308 307 308 309 310 310 310 310 313 313 313 312 312 310 312 311 310 310 311 311 311 311 311
301 308 304 307 313 312 311 311 310 313 311 315 311 311 311 310 309 310 310 310 309 309 308 307 308 309 308 310 312 312 312 312 312 311 311 311 311 311 310 309 309 311 311 310 312
306 307 310 312 312 312 311 310 310 313 311 314 310 310 310 309 310 311 311 310 308 308 308 307 308 307 308 311 312 310 312 311 312 311 310 310 308 309 309 310 308 307 313 314 315
309 304 307 311 312 310 308 313 314 312 312 312 311 310 310 310 310 310 310 310 309 308 307 306 308 309 310 312 311 311 311 308 308 307 309 309 308 308 308 308 309 313 314 314 314
306 306 308 309 310 309 310 314 312 313 312 312 311 310 310 310 311 310 309 308 307 308 308 308 308 312 312 311 308 307 306 307 308 310 311 309 310 308 309 311 313 314 314 314 313
312 314 314 314 311 312 312 309 313 312 311 311 311 310 311 310 310 310 310 308 309 307 306 306 307 309 310 310 308 308 307 306 310 311 308 309 310 308 309 314 314 314 313 312 312
313 315 314 311 311 313 313 308 308 310 310 311 311 311 310 311 310 309 309 310 310 308 309 309 310 309 309 309 308 308 308 306 309 308 309 308 308 308 309 313 313 312 312 312 313
314 314 313 311 311 313 308 312 309 309 310 311 311 311 311 310 309 309 309 312 311 310 307 308 310 308 309 309 308 309 309 309 305 311 312 310 309 310 310 311 313 311 311 313 313
313 313 312 312 312 314 308 310 311 312 311 311 311 311 310 310 310 310 310 310 312 311 309 309 307 309 308 308 307 307 309 309 306 306 307 311 310 308 311 311 311 310 312 313 313
312 309 313 312 310 306 308 310 311 312 311 311 310 310 310 310 309 309 310 311 312 311 311 310 308 310 309 308 309 307 309 309 306 308 310 310 311 309 311 311 310 311 313 313 313
310 313 313 313 306 305 306 309 310 311 311 310 310 309 309 309 310 310 311 311 312 311 310 309 308 310 308 307 307 310 310 310 308 308 313 312 311 311 311 311 312 312 312 313 314
307 305 309 309 308 306 307 309 311 311 311 309 309 309 308 309 307 309 310 311 310 310 311 311 307 310 310 308 306 310 310 310 312 313 311 311 311 310 310 311 312 313 313 313 315
304 304 305 303 302 304 306 309 310 309 308 308 308 308 308 308 308 308 308 308 309 310 310 308 309 309 310 310 311 312 312 312 312 312 313 312 311 310 311 311 311 311 312 314 316
302 304 304 304 305 305 305 307 308 308 306 307 307 306 306 306 306 306 306 307 308 308 309 306 309 310 312 312 312 312 312 312 311 311 312 312 312 310 310 310 310 311 311 312 313
301 304 305 303 303 302 302 304 306 306 307 307 306 305 305 305 307 307 307 307 307 307 307 307 308 310 311 310 311 313 312 312 313 312 311 312 312 310 310 310 311 311 311 312 313